1483830000.94,42604,3.19,72466.5,-25.21,-59.95,-60.37,0,*62
1483830002.18,42605,3.19,72462.0,-25.23,-59.63,-59.95,0,*6A
1483830003.47,42606,3.19,72466.8,-25.21,-59.71,-60.19,0,*66
1483830004.77,42607,3.19,72466.8,-25.21,-59.71,-60.37,0,*6B
1483830006.03,42608,3.19,72468.3,-25.21,-59.95,-60.45,0,*6B
1483830007.3,42609,3.19,72472.0,-25.21,-59.87,-60.37,0,*6C
1483830008.6,42610,3.19,72474.3,-25.21,-60.19,-60.45,0,*6C
1483830009.86,42611,3.19,72474.3,-25.21,-59.87,-60.45,0,*60
1483830011.12,42612,3.19,72472.8,-25.21,-59.95,-60.45,0,*60
1483830012.39,42613,3.19,72468.5,-25.19,-60.11,-60.27,0,*68
1483830013.62,42614,3.19,72470.5,-25.19,-59.63,-59.87,0,*60
1483830014.89,42615,3.19,72470.0,-25.19,-59.63,-60.11,0,*64
1483830016.19,42616,3.19,72464.5,-25.21,-60.19,-60.53,0,*6D
1483830017.45,42617,3.19,72466.5,-25.21,-59.95,-60.45,0,*65
1483830018.75,42618,3.19,72468.3,-25.21,-60.19,-60.45,0,*64
1483830020.04,42619,3.19,72466.0,-25.21,-60.11,-60.45,0,*6D
1483830021.34,42620,3.19,72466.8,-25.21,-60.19,-60.45,0,*6F
1483830022.61,42621,3.19,72464.8,-25.23,-60.11,-60.53,0,*63
1483830023.87,42622,3.19,72454.5,-25.21,-59.87,-60.19,0,*69
1483830025.14,42623,3.19,72460.0,-25.21,-59.95,-60.37,0,*67
1483830026.42,42624,3.19,72456.0,-25.21,-59.95,-60.37,0,*60
1483830027.72,42625,3.19,72460.5,-25.21,-60.19,-60.53,0,*6D
1483830028.98,42626,3.19,72456.0,-25.21,-59.71,-59.95,0,*6A
1483830030.27,42627,3.19,72458.5,-25.21,-59.71,-60.37,0,*69
1483830031.54,42628,3.19,72454.8,-25.21,-59.95,-60.45,0,*69
1483830032.77,42629,3.19,72456.5,-25.19,-59.29,-59.55,0,*6F
1483830034.01,42630,3.19,72458.0,-25.19,-59.13,-59.63,0,*6B
1483830035.24,42631,3.19,72470.8,-25.19,-59.63,-59.87,0,*67
1483830036.44,42632,3.19,72464.0,-25.19,-59.37,-59.79,0,*64
1483830037.67,42633,3.19,72460.3,-25.19,-59.55,-59.87,0,*60
1483830038.91,42634,3.19,72460.5,-25.19,-59.79,-60.27,0,*69
1483830040.15,42635,3.19,72454.8,-25.19,-59.79,-60.27,0,*68
1483830041.38,42636,3.19,72456.0,-25.19,-59.79,-60.11,0,*6E
1483830042.61,42637,3.19,72452.8,-25.17,-59.79,-60.03,0,*62
1483830043.85,42638,3.19,72454.3,-25.19,-59.79,-60.11,0,*60
1483830045.11,42639,3.19,72456.0,-25.17,-59.63,-60.03,0,*67
1483830046.4,42640,3.19,72466.5,-25.17,-59.63,-60.11,0,*6A
1483830047.67,42641,3.19,72466.5,-25.17,-59.79,-60.27,0,*65
1483830048.93,42642,3.19,72464.3,-25.17,-59.55,-59.87,0,*68
1483830050.2,42643,3.19,72470.5,-25.17,-59.79,-60.37,0,*66
1483830051.46,42644,3.19,72466.5,-25.17,-59.63,-59.87,0,*6B
1483830052.69,42645,3.19,72464.3,-25.17,-59.29,-59.79,0,*65
1483830053.92,42646,3.19,72464.5,-25.19,-59.63,-59.87,0,*67
1483830055.19,42647,3.19,72466.3,-25.17,-59.79,-60.27,0,*63
1483830056.45,42648,3.19,72468.8,-25.17,-59.55,-59.79,0,*63
1483830057.72,42649,3.19,72460.5,-25.17,-59.79,-60.27,0,*6D
1483830058.99,42650,3.19,72462.3,-25.17,-59.87,-60.37,0,*65
1483830060.26,42651,3.19,72466.5,-25.17,-59.79,-60.27,0,*64
1483830061.52,42652,3.19,72464.3,-25.17,-59.79,-60.11,0,*62
1483830062.79,42653,3.19,72468.0,-25.17,-60.03,-60.37,0,*60
1483830064.06,42654,3.19,72468.0,-25.17,-59.79,-60.27,0,*61
1483830065.31,42655,3.19,72468.8,-25.13,-59.79,-60.27,0,*64
1483830066.55,42656,3.19,72474.0,-25.13,-60.03,-60.27,0,*60
1483830067.8,42657,3.19,72470.8,-25.13,-60.03,-60.53,0,*62
1483830069.09,42658,3.19,72470.8,-25.17,-60.11,-60.45,0,*6D
1483830070.39,42659,3.19,72468.5,-25.17,-60.27,-60.45,0,*69
1483830071.68,42660,3.19,72468.3,-25.17,-60.11,-60.45,0,*66
1483830072.98,42661,3.19,72472.5,-25.17,-60.11,-60.37,0,*62
1483830074.25,42662,3.19,72468.8,-25.17,-59.87,-60.37,0,*64
1483830075.51,42663,3.19,72466.3,-25.17,-60.03,-60.45,0,*66
1483830076.78,42664,3.19,72466.5,-25.17,-60.03,-60.45,0,*61
1483830078.05,42665,3.19,72462.3,-25.17,-60.03,-60.37,0,*65
1483830079.31,42666,3.19,72460.5,-25.17,-60.03,-60.27,0,*67
1483830080.55,42667,3.19,72460.0,-25.19,-59.79,-60.27,0,*6F
1483830081.82,42668,3.19,72460.8,-25.17,-60.03,-60.37,0,*68
1483830083.09,42669,3.19,72460.5,-25.17,-60.03,-60.37,0,*69
1483830084.33,42670,3.19,72462.0,-25.19,-59.79,-60.27,0,*69
1483830085.6,42671,3.19,72456.3,-25.17,-60.03,-60.37,0,*60
1483830086.87,42672,3.19,72458.3,-25.19,-60.37,-60.61,0,*69
1483830088.13,42673,3.19,72460.3,-25.19,-60.27,-60.45,0,*6F
1483830089.4,42674,3.19,72462.3,-25.17,-59.79,-60.27,0,*63
1483830090.64,42675,3.19,72462.5,-25.19,-59.79,-60.11,0,*69
1483830091.87,42676,3.19,72460.3,-25.19,-59.79,-60.27,0,*6F
1483830093.14,42677,3.19,72462.5,-25.17,-59.87,-60.37,0,*60
1483830094.41,42678,3.19,72456.0,-25.19,-60.11,-60.37,0,*64
1483830095.67,42679,3.19,72456.0,-25.19,-60.11,-60.45,0,*60
1483830096.94,42680,3.19,72454.3,-25.17,-59.79,-60.11,0,*6D
1483830098.2,42681,3.19,72448.8,-25.17,-59.79,-60.11,0,*6C
1483830099.47,42682,3.19,72450.8,-25.17,-59.63,-59.87,0,*61
1483830100.73,42683,3.19,72468.5,-25.17,-60.03,-60.37,0,*6D
1483830101.97,42684,3.19,72466.5,-25.17,-59.29,-59.79,0,*68
1483830103.21,42685,3.19,72464.0,-25.17,-59.37,-59.79,0,*66
1483830104.48,42686,3.19,72464.5,-25.17,-59.79,-60.27,0,*6E
1483830105.74,42687,3.19,72464.5,-25.17,-60.03,-60.37,0,*69
1483830107.01,42688,3.19,72472.0,-25.17,-59.79,-60.11,0,*65
1483830108.27,42689,3.19,72466.8,-25.17,-59.63,-60.03,0,*6C
1483830109.53,42690,3.19,72468.5,-25.17,-59.63,-60.03,0,*64
1483830110.79,42691,3.19,72468.5,-25.17,-59.55,-60.03,0,*60
1483830112.07,42692,3.19,72466.5,-25.11,-59.05,-59.55,0,*69
1483830113.3,42693,3.19,72456.3,-25.13,-59.47,-59.79,0,*62
1483830114.54,42694,3.19,72460.0,-25.13,-59.71,-60.03,0,*67
1483830115.78,42695,3.19,72456.8,-25.13,-59.71,-59.95,0,*63
1483830117.01,42696,3.19,72458.0,-25.13,-59.71,-60.03,0,*65
1483830118.28,42697,3.19,72458.5,-25.13,-59.71,-60.19,0,*6F
1483830119.54,42698,3.19,72458.3,-25.11,-59.47,-59.79,0,*6B
1483830120.83,42699,3.19,72458.0,-25.11,-59.55,-60.19,0,*65
1483830122.08,42700,3.19,72466.5,-25.11,-59.55,-60.03,0,*6F
1483830123.37,42701,3.19,72460.8,-25.11,-59.71,-60.27,0,*6E
1483830124.62,42702,3.19,72460.0,-25.13,-60.03,-60.27,0,*60
1483830125.87,42703,3.19,72462.0,-25.13,-59.79,-60.37,0,*67
1483830127.13,42704,3.19,72462.5,-25.11,-59.71,-59.95,0,*68
1483830128.39,42705,3.19,72458.8,-25.11,-59.55,-59.79,0,*6D
1483830129.62,42706,3.19,72456.8,-25.13,-59.55,-60.03,0,*6B
1483830130.89,42707,3.19,72452.3,-25.11,-59.95,-60.27,0,*62
1483830132.18,42708,3.19,72452.0,-25.11,-59.71,-60.19,0,*6A
1483830133.44,42709,3.19,72450.0,-25.11,-59.55,-59.95,0,*63
1483830134.68,42710,3.19,72450.0,-25.13,-59.79,-60.19,0,*69
1483830135.96,42711,3.19,72458.0,-25.13,-60.19,-60.37,0,*68
1483830137.2,42712,3.19,72460.0,-25.13,-59.95,-60.19,0,*69
1483830138.47,42713,3.19,72452.5,-25.11,-60.03,-60.53,0,*61
1483830139.77,42714,3.19,72454.3,-25.11,-60.19,-60.37,0,*6F
1483830141.04,42715,3.19,72462.8,-25.11,-59.79,-60.37,0,*62
1483830142.28,42716,3.19,72456.5,-25.13,-59.95,-60.19,0,*6D
1483830143.53,42717,3.13,72454.3,-25.13,-59.95,-60.27,0,*61
1483830144.78,42718,3.19,72458.3,-25.13,-59.79,-60.27,0,*6C
1483830146.02,42719,3.19,72456.3,-25.13,-59.79,-60.19,0,*60
1483830147.26,42720,3.19,72462.0,-25.13,-59.79,-60.19,0,*6A
1483830148.53,42721,3.19,72458.5,-25.13,-59.71,-60.19,0,*63
1483830149.8,42722,3.19,72468.5,-25.11,-59.79,-60.27,0,*67
1483830151.05,42723,3.13,72460.3,-25.13,-59.95,-60.27,0,*66
1483830152.34,42724,3.19,72462.5,-25.11,-59.71,-60.19,0,*64
1483830153.58,42725,3.19,72464.5,-25.13,-59.79,-60.19,0,*6F
1483830154.86,42726,3.19,72470.3,-25.11,-59.55,-59.71,0,*64
1483830156.1,42727,3.19,72464.5,-25.13,-59.55,-59.95,0,*6D
1483830157.37,42728,3.19,72462.8,-25.11,-59.95,-60.37,0,*6E
1483830158.62,42729,3.19,72460.3,-25.13,-59.95,-60.37,0,*6D
1483830159.89,42730,3.19,72462.5,-25.11,-59.95,-60.37,0,*67
1483830161.12,42731,3.19,72462.0,-25.13,-59.71,-60.03,0,*69
1483830162.39,42732,3.19,72460.8,-25.11,-59.95,-60.27,0,*64
1483830163.64,42733,3.19,72466.5,-25.13,-60.03,-60.27,0,*62
1483830164.91,42734,3.19,72466.8,-25.11,-60.03,-60.37,0,*66
1483830166.19,42735,3.19,72456.8,-25.13,-60.27,-60.53,0,*61
1483830167.43,42736,3.19,72450.8,-25.13,-60.03,-60.53,0,*64
1483830168.68,42737,3.19,72456.8,-25.13,-59.95,-60.37,0,*62
1483830169.92,42738,3.19,72464.0,-25.13,-59.71,-60.03,0,*60
1483830171.19,42739,3.19,72460.3,-25.11,-59.79,-60.27,0,*6D
1483830172.44,42740,3.19,72458.0,-25.13,-59.95,-60.37,0,*62
1483830173.68,42741,3.19,72452.8,-25.13,-59.95,-60.27,0,*62
1483830174.92,42742,3.19,72460.3,-25.13,-59.55,-59.95,0,*6E
1483830176.17,42743,3.19,72460.5,-25.13,-60.03,-60.37,0,*64
1483830177.42,42744,3.19,72466.8,-25.13,-60.03,-60.37,0,*63
1483830178.67,42745,3.19,72462.5,-25.13,-60.03,-60.37,0,*62
1483830179.94,42746,3.13,72460.3,-25.13,-60.37,-60.61,0,*65
1483830181.21,42747,3.19,72466.0,-25.17,-59.87,-60.37,0,*62
1483830182.46,42748,3.19,72464.3,-25.13,-59.79,-60.27,0,*69
1483830183.69,42749,3.19,72468.0,-25.19,-59.79,-60.11,0,*67
1483830184.99,42750,3.19,72462.5,-25.17,-60.27,-60.45,0,*61
1483830186.28,42751,3.19,72466.0,-25.17,-60.11,-60.45,0,*65
1483830187.58,42752,3.19,72466.0,-25.17,-60.11,-60.61,0,*60
1483830188.88,42753,3.19,72466.0,-25.17,-60.11,-60.61,0,*61
1483830190.17,42754,3.19,72464.5,-25.17,-60.27,-60.45,0,*65
1483830191.43,42755,3.19,72466.0,-25.17,-60.03,-60.45,0,*62
1483830192.7,42756,3.19,72462.8,-25.17,-60.03,-60.37,0,*64
1483830194.0,42757,3.19,72464.0,-25.17,-60.11,-60.37,0,*66
1483830195.29,42758,3.19,72464.3,-25.17,-60.11,-60.45,0,*6C
1483830196.56,42759,3.13,72460.5,-25.17,-60.03,-60.37,0,*6B
1483830197.83,42760,3.19,72464.0,-25.17,-59.79,-60.37,0,*66
1483830199.1,42761,3.19,72468.0,-25.17,-60.03,-60.37,0,*60
1483830200.37,42762,3.19,72468.5,-25.19,-60.27,-60.45,0,*6E
1483830201.63,42763,3.19,72466.0,-25.17,-60.03,-60.45,0,*67
1483830202.93,42764,3.19,72468.0,-25.17,-60.27,-60.61,0,*60
1483830204.2,42765,3.19,72468.8,-25.19,-60.27,-60.45,0,*69
1483830205.47,42766,3.19,72466.0,-25.19,-60.27,-60.61,0,*6C
1483830206.74,42767,3.19,72464.5,-25.19,-60.27,-60.45,0,*6B
1483830208.01,42768,3.19,72466.5,-25.19,-60.27,-60.61,0,*62
1483830209.31,42769,3.19,72468.3,-25.17,-60.11,-60.61,0,*68
1483830210.55,42770,3.19,72466.5,-25.19,-60.03,-60.61,0,*6D
1483830211.78,42771,3.19,72470.8,-25.19,-60.03,-60.45,0,*6A
1483830213.08,42772,3.19,72466.0,-25.17,-60.27,-60.61,0,*67
1483830214.37,42773,3.19,72468.0,-25.17,-60.37,-60.45,0,*61
1483830215.64,42774,3.19,72470.0,-25.19,-60.11,-60.61,0,*6A
1483830216.93,42775,3.19,72470.3,-25.17,-60.11,-60.45,0,*63
1483830218.17,42776,3.19,72466.8,-25.19,-60.03,-60.45,0,*6D
1483830219.4,42777,3.19,72468.5,-25.19,-59.87,-60.45,0,*6A
1483830220.64,42778,3.19,72474.8,-25.19,-59.87,-60.37,0,*60
1483830221.84,42779,3.19,72470.8,-25.19,-59.79,-60.03,0,*67
1483830223.08,42780,3.19,72468.5,-25.19,-59.87,-60.37,0,*67
1483830224.32,42781,3.19,72464.3,-25.19,-59.79,-60.27,0,*66
1483830225.56,42782,3.19,72468.8,-25.19,-59.79,-60.27,0,*65
1483830226.83,42783,3.19,72466.8,-25.19,-60.11,-60.37,0,*61
1483830228.1,42784,3.19,72468.0,-25.19,-60.27,-60.69,0,*68
1483830229.33,42785,3.13,72464.0,-25.19,-59.87,-60.27,0,*63
1483830230.57,42786,3.19,72468.3,-25.19,-59.79,-60.27,0,*61
1483830231.81,42787,3.19,72470.0,-25.19,-59.79,-60.37,0,*61
1483830233.05,42788,3.19,72472.0,-25.19,-60.03,-60.37,0,*69
1483830234.29,42789,3.19,72470.3,-25.19,-59.79,-60.11,0,*6B
1483830235.55,42790,3.19,72470.8,-25.21,-59.87,-60.19,0,*61
1483830236.82,42791,3.19,72472.8,-25.21,-59.95,-60.37,0,*6F
1483830238.12,42792,3.13,72468.8,-25.21,-60.11,-60.53,0,*68
1483830239.36,42793,3.13,72466.5,-25.19,-60.03,-60.61,0,*60
1483830240.6,42794,3.19,72470.5,-25.19,-59.87,-60.27,0,*63
1483830241.84,42795,3.19,72468.0,-25.19,-60.03,-60.27,0,*64
1483830243.11,42796,3.19,72468.8,-25.19,-60.11,-60.61,0,*66
1483830244.38,42797,3.19,72472.3,-25.17,-60.03,-60.37,0,*69
1483830245.58,42798,3.19,72472.3,-25.19,-59.79,-60.03,0,*68
1483830246.82,42799,3.19,72470.0,-25.19,-59.87,-60.37,0,*6F
1483830248.09,42800,3.19,72470.8,-25.19,-60.11,-60.37,0,*65
1483830249.33,42801,3.19,72470.8,-25.19,-59.87,-60.27,0,*60
1483830250.53,42802,3.19,72474.0,-25.19,-59.79,-60.03,0,*64
1483830251.77,42803,3.19,72472.8,-25.19,-60.03,-60.37,0,*65
1483830253.01,42804,3.19,72470.5,-25.19,-59.79,-60.27,0,*64
1483830254.24,42805,3.19,72468.5,-25.19,-59.79,-60.11,0,*60
1483830255.51,42806,3.19,72470.8,-25.17,-59.87,-60.11,0,*6C
1483830256.75,42807,3.19,72474.5,-25.19,-59.79,-60.27,0,*67
1483830258.01,42808,3.19,72474.8,-25.17,-59.87,-60.27,0,*67
1483830259.25,42809,3.19,72472.8,-25.19,-59.87,-60.27,0,*68
1483830260.52,42810,3.19,72474.3,-25.19,-60.11,-60.45,0,*61
1483830261.78,42811,3.19,72470.3,-25.17,-60.03,-60.45,0,*6D
1483830263.02,42812,3.19,72474.3,-25.19,-59.79,-60.37,0,*62
1483830264.26,42813,3.19,72472.8,-25.19,-59.87,-60.37,0,*62
1483830265.5,42814,3.19,72472.3,-25.19,-59.79,-60.37,0,*64
1483830266.73,42815,3.19,72476.5,-25.19,-59.79,-60.11,0,*61
1483830268.0,42816,3.19,72474.8,-25.17,-59.87,-60.37,0,*69
1483830269.24,42817,3.19,72474.5,-25.19,-59.87,-60.27,0,*67
1483830270.48,42818,3.19,72474.0,-25.19,-59.79,-60.37,0,*68
1483830271.72,42819,3.19,72470.3,-25.19,-59.79,-60.37,0,*69
1483830273.02,42820,3.19,72472.3,-25.21,-60.19,-60.37,0,*64
1483830274.31,42821,3.19,72474.5,-25.17,-60.11,-60.45,0,*6D
1483830275.55,42822,3.19,72468.8,-25.19,-59.79,-60.11,0,*65
1483830276.79,42823,3.19,72470.8,-25.19,-59.87,-60.37,0,*61
1483830278.03,42824,3.13,72468.5,-25.19,-60.03,-60.37,0,*60
1483830279.27,42825,3.19,72474.8,-25.19,-59.87,-60.27,0,*66
1483830280.51,42826,3.19,72474.5,-25.19,-60.03,-60.37,0,*62
1483830281.78,42827,3.19,72474.0,-25.19,-60.11,-60.37,0,*60
1483830283.02,42828,3.19,72472.5,-25.19,-59.79,-60.27,0,*6A
1483830284.25,42829,3.19,72468.8,-25.19,-59.87,-60.37,0,*6B
1483830285.52,42830,3.19,72472.5,-25.17,-59.79,-60.27,0,*6D
1483830286.76,42831,3.19,72474.0,-25.19,-59.87,-60.27,0,*63
1483830288.0,42832,3.19,72468.5,-25.19,-59.79,-60.27,0,*61
1483830289.24,42833,3.19,72474.5,-25.19,-60.03,-60.37,0,*66
1483830290.48,42834,3.19,72472.3,-25.19,-59.79,-60.37,0,*66
1483830291.72,42835,3.19,72474.8,-25.19,-59.87,-60.37,0,*66
1483830292.96,42836,3.13,72470.0,-25.19,-59.79,-60.27,0,*65
1483830294.19,42837,3.19,72472.5,-25.19,-59.63,-60.03,0,*69
1483830295.42,42838,3.19,72472.8,-25.19,-59.55,-59.79,0,*64
1483830296.68,42839,3.19,72474.5,-25.17,-59.63,-59.87,0,*6F
1483830297.9,42840,3.13,72470.8,-25.19,-59.55,-59.87,0,*6A
1483830299.14,42841,3.19,72474.8,-25.19,-59.79,-60.11,0,*60
1483830300.41,42842,3.19,72476.3,-25.17,-59.79,-60.27,0,*68
1483830301.64,42843,3.19,72472.5,-25.19,-59.63,-60.03,0,*6A
1483830302.9,42844,3.19,72464.8,-25.17,-59.37,-59.55,0,*6B
1483830304.14,42845,3.19,72460.3,-25.19,-59.29,-59.63,0,*6E
1483830305.4,42846,3.19,72460.3,-25.17,-59.63,-60.03,0,*61
1483830306.69,42847,3.19,72462.0,-25.17,-59.63,-60.11,0,*63
1483830307.96,42848,3.19,72460.3,-25.17,-60.03,-60.37,0,*64
1483830309.23,42849,3.19,72464.8,-25.17,-60.03,-60.27,0,*64
1483830310.5,42850,3.19,72466.8,-25.17,-59.79,-60.11,0,*6E
1483830311.77,42851,3.19,72470.8,-25.17,-59.79,-60.27,0,*6A
1483830313.06,42852,3.19,72468.8,-25.17,-60.11,-60.45,0,*69
1483830314.3,42853,3.19,72470.3,-25.19,-60.03,-60.37,0,*60
1483830315.57,42854,3.19,72468.0,-25.17,-59.87,-60.27,0,*6E
1483830316.8,42855,3.19,72466.5,-25.19,-59.87,-60.37,0,*60
1483830318.04,42856,3.19,72466.3,-25.19,-59.87,-60.37,0,*63
1483830319.31,42857,3.19,72468.5,-25.17,-59.79,-60.27,0,*6C
1483830320.61,42858,3.19,72470.0,-25.17,-59.63,-60.11,0,*6D
1483830321.87,42859,3.19,72470.3,-25.17,-59.87,-60.27,0,*63
1483830323.14,42860,3.19,72470.0,-25.17,-60.03,-60.37,0,*6E
1483830324.41,42861,3.19,72468.0,-25.17,-59.87,-60.37,0,*69
1483830325.68,42862,3.19,72468.5,-25.17,-59.87,-60.27,0,*6B
1483830326.94,42863,3.19,72470.0,-25.19,-60.11,-60.45,0,*65
1483830328.21,42864,3.13,72464.5,-25.19,-60.37,-60.61,0,*60
1483830329.48,42865,3.19,72470.3,-25.19,-60.37,-60.85,0,*6B
1483830330.74,42866,3.19,72468.5,-25.19,-60.27,-60.45,0,*65
1483830331.98,42867,3.19,72470.0,-25.19,-59.79,-60.27,0,*61
1483830333.22,42868,3.19,72468.0,-25.19,-59.87,-60.27,0,*6F
1483830334.46,42869,3.19,72470.8,-25.19,-59.79,-60.37,0,*6E
1483830335.73,42870,3.19,72464.3,-25.19,-60.27,-60.45,0,*62
1483830337.0,42871,3.13,72466.8,-25.19,-60.27,-60.61,0,*65
1483830338.27,42872,3.19,72468.8,-25.19,-60.11,-60.61,0,*63
1483830339.56,42873,3.13,72466.8,-25.21,-60.53,-60.77,0,*68
1483830340.85,42874,3.19,72470.5,-25.21,-60.69,-60.77,0,*66
1483830342.12,42875,3.19,72472.3,-25.21,-59.87,-60.37,0,*69
1483830343.35,42876,3.19,72472.8,-25.19,-59.63,-60.03,0,*6C
1483830344.64,42877,3.19,72472.5,-25.21,-59.71,-60.11,0,*66
1483830345.84,42878,3.19,72468.8,-25.19,-59.79,-60.03,0,*69
1483830347.11,42879,3.19,72464.3,-25.21,-59.87,-60.37,0,*65
1483830348.41,42880,3.19,72464.8,-25.21,-60.11,-60.53,0,*64
1483830349.68,42881,3.19,72464.3,-25.21,-59.87,-60.37,0,*62
1483830350.94,42882,3.19,72468.8,-25.21,-59.95,-60.45,0,*67
1483830352.21,42883,3.13,72464.8,-25.19,-60.11,-60.45,0,*6B
1483830353.41,42884,3.13,72470.3,-25.19,-59.79,-60.03,0,*6A
1483830354.61,42885,3.19,72468.5,-25.19,-59.37,-60.03,0,*61
1483830355.88,42886,3.19,72470.0,-25.21,-59.95,-60.37,0,*66
1483830357.12,42887,3.19,72472.3,-25.19,-59.87,-60.37,0,*6F
1483830358.33,42888,3.19,72470.3,-25.19,-59.37,-59.79,0,*6B
1483830359.59,42889,3.19,72468.5,-25.19,-59.63,-60.11,0,*6F
1483830360.83,42890,3.19,72468.0,-25.19,-60.03,-60.37,0,*6F
1483830362.07,42891,3.19,72470.8,-25.19,-59.87,-60.37,0,*68
1483830363.33,42892,3.19,72470.5,-25.19,-59.55,-60.11,0,*60
1483830364.57,42893,3.19,72470.8,-25.19,-59.87,-60.37,0,*6A
1483830365.84,42894,3.19,72472.3,-25.21,-59.95,-60.45,0,*60
1483830367.11,42895,3.19,72472.5,-25.21,-59.95,-60.37,0,*64
1483830368.35,42896,3.19,72470.8,-25.19,-59.87,-60.37,0,*6F
1483830369.61,42897,3.13,72468.5,-25.19,-59.63,-60.11,0,*60
1483830370.84,42898,3.19,72468.0,-25.17,-59.37,-59.87,0,*65
1483830372.08,42899,3.19,72468.0,-25.19,-59.87,-60.11,0,*64
1483830373.32,42900,3.19,72470.8,-25.19,-59.87,-60.37,0,*61
1483830374.56,42901,3.19,72472.0,-25.19,-59.87,-60.37,0,*60
1483830375.83,42902,3.13,72472.0,-25.19,-60.27,-60.61,0,*60
1483830377.09,42903,3.19,72472.0,-25.21,-59.87,-60.45,0,*6C
1483830378.39,42904,3.19,72470.5,-25.21,-60.11,-60.53,0,*69
1483830379.69,42905,3.13,72470.0,-25.21,-60.19,-60.53,0,*60
1483830380.96,42906,3.19,72470.0,-25.21,-59.95,-60.45,0,*6A
1483830382.26,42907,3.19,72474.5,-25.21,-60.11,-60.53,0,*6A
1483830383.5,42908,3.13,72470.8,-25.23,-59.95,-60.53,0,*61
1483830384.77,42909,3.19,72474.5,-25.21,-59.87,-60.37,0,*63
1483830385.98,42910,3.19,72472.8,-25.23,-59.37,-59.87,0,*63
1483830387.27,42911,3.19,72472.5,-25.21,-59.71,-60.11,0,*67
1483830388.54,42912,3.19,72472.5,-25.21,-59.87,-60.37,0,*69
1483830389.84,42913,3.19,72478.5,-25.21,-59.71,-60.11,0,*65
1483830391.1,42914,3.13,72474.3,-25.21,-59.63,-59.95,0,*67
1483830392.36,42915,3.13,72472.5,-25.21,-59.71,-59.95,0,*65
1483830393.62,42916,3.13,72472.5,-25.21,-59.47,-59.95,0,*63
1483830394.87,42917,3.19,72472.0,-25.21,-59.47,-59.87,0,*61
1483830396.11,42918,3.19,72476.3,-25.19,-59.37,-59.63,0,*68
1483830397.32,42919,3.19,72478.3,-25.19,-59.37,-59.79,0,*62
1483830398.58,42920,3.19,72478.5,-25.19,-59.63,-60.11,0,*6D
1483830399.79,42921,3.19,72474.0,-25.19,-59.37,-59.79,0,*69
1483830400.99,42922,3.19,72472.8,-25.19,-59.37,-59.79,0,*6A
1483830402.2,42923,3.19,72474.8,-25.19,-59.29,-59.79,0,*64
1483830403.47,42924,3.19,72472.3,-25.17,-59.29,-59.63,0,*66
1483830404.67,42925,3.19,72474.3,-25.19,-59.29,-59.79,0,*62
1483830405.94,42926,3.19,72476.0,-25.17,-59.29,-59.55,0,*61
1483830407.17,42927,3.19,72478.8,-25.17,-59.29,-59.87,0,*6F
1483830408.4,42928,3.19,72482.5,-25.17,-59.13,-59.37,0,*62
1483830409.67,42929,3.19,72478.0,-25.17,-59.05,-59.13,0,*62
1483830410.92,42930,3.19,72482.5,-25.17,-58.57,-59.05,0,*6B
1483830412.14,42931,3.19,72480.0,-25.13,-58.49,-58.73,0,*61
1483830413.4,42932,3.19,72478.5,-25.11,-58.49,-58.81,0,*6D
1483830414.66,42933,3.19,72476.0,-25.11,-58.57,-58.97,0,*64
1483830415.92,42934,3.19,72472.3,-25.11,-58.57,-59.05,0,*69
1483830417.21,42935,3.19,72472.8,-25.11,-58.81,-59.05,0,*63
1483830418.47,42936,3.19,72478.3,-25.11,-59.05,-59.29,0,*63
1483830419.75,42937,3.19,72472.5,-25.11,-59.05,-59.47,0,*6A
1483830421.01,42938,3.19,72472.3,-25.11,-59.21,-59.63,0,*65
1483830422.27,42939,3.19,72474.0,-25.09,-59.47,-59.71,0,*6E
1483830423.53,42940,3.19,72472.8,-25.11,-59.21,-59.63,0,*6A
1483830424.78,42941,3.19,72466.0,-25.09,-59.21,-59.63,0,*62
1483830426.01,42942,3.19,72466.5,-25.09,-59.21,-59.71,0,*62
1483830427.29,42943,3.19,72460.5,-25.11,-59.47,-59.71,0,*6A
1483830428.5,42944,3.19,72466.8,-25.09,-59.37,-59.87,0,*6A
1483830429.76,42945,3.19,72468.0,-25.11,-59.37,-59.71,0,*6B
1483830430.99,42946,3.19,72466.5,-25.11,-59.37,-59.87,0,*61
1483830432.23,42947,3.19,72468.8,-25.09,-58.97,-59.37,0,*69
1483830433.47,42948,3.19,72466.8,-25.09,-58.73,-58.89,0,*68
1483830434.68,42949,3.19,72458.5,-25.09,-59.13,-59.37,0,*6A
1483830435.91,42950,3.19,72462.8,-25.09,-59.21,-59.47,0,*64
1483830437.14,42951,3.19,72464.0,-25.09,-59.13,-59.71,0,*61
1483830438.41,42952,3.19,72462.8,-25.07,-59.21,-59.63,0,*6E
1483830439.66,42953,3.19,72466.0,-25.07,-59.47,-59.95,0,*66
1483830440.89,42954,3.19,72460.0,-25.07,-59.37,-59.87,0,*65
1483830442.15,42955,3.19,72464.3,-25.07,-59.71,-59.95,0,*65
1483830443.44,42956,3.19,72460.8,-25.07,-59.71,-60.19,0,*68
1483830444.73,42957,3.19,72462.0,-25.07,-59.63,-60.11,0,*62
1483830446.0,42958,3.19,72466.5,-25.09,-59.71,-60.19,0,*68
1483830447.26,42959,3.19,72470.0,-25.09,-59.71,-60.19,0,*69
1483830448.53,42960,3.19,72468.3,-25.11,-59.95,-60.45,0,*69
1483830449.82,42961,3.19,72472.5,-25.07,-59.63,-60.19,0,*6F
1483830451.05,42962,3.19,72472.5,-25.09,-59.13,-59.47,0,*64
1483830452.29,42963,3.19,72470.8,-25.09,-59.13,-59.63,0,*63
1483830453.52,42964,3.19,72474.3,-25.09,-59.47,-59.95,0,*6C
1483830454.79,42965,3.19,72470.0,-25.07,-59.87,-60.27,0,*6C
1483830456.06,42966,3.19,72468.8,-25.07,-59.95,-60.27,0,*6C
1483830457.32,42967,3.19,72472.0,-25.07,-59.63,-59.87,0,*64
1483830458.58,42968,3.19,72476.3,-25.07,-59.13,-59.63,0,*66
1483830459.86,42969,3.19,72474.3,-25.07,-59.47,-59.71,0,*65
1483830461.12,42970,3.19,72476.5,-25.07,-59.13,-59.63,0,*6F
1483830462.38,42971,3.19,72474.3,-25.07,-59.37,-59.71,0,*6B
1483830463.66,42972,3.19,72472.8,-25.07,-59.47,-59.71,0,*6F
1483830464.92,42973,3.19,72472.0,-25.07,-59.47,-59.95,0,*64
1483830466.17,42974,3.19,72468.0,-25.07,-59.47,-59.87,0,*60
1483830467.43,42975,3.13,72464.8,-25.03,-59.29,-59.55,0,*62
1483830468.69,42976,3.19,72456.0,-25.07,-59.13,-59.47,0,*6F
1483830469.95,42977,3.19,72454.8,-25.03,-59.29,-59.63,0,*65
1483830471.2,42978,3.19,72454.8,-25.03,-59.55,-60.03,0,*6D
1483830472.49,42979,3.19,72456.0,-25.03,-59.63,-60.11,0,*6A
1483830473.75,42980,3.13,72458.3,-25.07,-59.95,-60.45,0,*60
1483830475.01,42981,3.19,72466.8,-25.07,-59.95,-60.45,0,*61
1483830476.28,42982,3.19,72462.3,-25.07,-59.95,-60.27,0,*66
1483830477.55,42983,3.19,72460.5,-25.07,-59.87,-60.27,0,*64
1483830478.81,42984,3.19,72464.0,-25.07,-59.87,-60.27,0,*63
1483830480.1,42985,3.19,72466.8,-25.07,-59.71,-60.19,0,*66
1483830481.36,42986,3.19,72468.0,-25.07,-59.95,-60.45,0,*66
1483830482.63,42987,3.19,72470.5,-25.07,-59.87,-60.19,0,*6D
1483830483.88,42988,3.19,72468.8,-25.03,-59.55,-60.03,0,*62
1483830485.16,42989,3.19,72466.8,-25.07,-59.47,-59.71,0,*6B
1483830486.45,42990,3.19,72460.5,-25.07,-59.47,-60.11,0,*6F
1483830487.7,42991,3.19,72458.0,-25.07,-59.47,-59.95,0,*68
1483830488.99,42992,3.19,72466.5,-25.07,-59.63,-60.19,0,*63
1483830490.26,42993,3.19,72466.5,-25.03,-59.29,-59.63,0,*6F
1483830491.52,42994,3.13,72456.8,-25.03,-59.37,-59.63,0,*67
1483830492.77,42995,3.19,72458.0,-25.07,-59.47,-59.87,0,*6F
1483830494.04,42996,3.19,72462.8,-25.03,-59.29,-59.63,0,*6A
1483830495.29,42997,3.19,72466.0,-25.03,-59.29,-59.55,0,*6E
1483830496.55,42998,3.19,72462.5,-25.03,-59.05,-59.37,0,*6B
1483830497.78,42999,3.19,72464.5,-25.07,-59.13,-59.21,0,*6E
1483830499.03,43000,3.19,72466.0,-25.07,-59.47,-59.87,0,*6B
1483830500.24,43001,3.19,72468.0,-25.01,-59.37,-59.87,0,*6B
1483830501.49,43002,3.19,72468.5,-25.03,-59.29,-59.55,0,*6A
1483830502.75,43003,3.19,72464.8,-25.03,-59.29,-59.55,0,*6B